Regional Weather Roundup
Issued by NWS Newport/Morehead, NC

Current Version | Previous Version | Text Only | Print | Product List | Glossary Off
Versions: 1 2 3 4 5 6 7 8 9 10 11 12 13 14 15 16 17 18 19 20 21 22 23 24 25 26 27 28 29 30 31 32 33 34 35 36 37 38 39 40 41 42 43 44 45 46 47 48 49 50
000 ASUS42 KMHX 290122 RWRMHX WEATHER ROUNDUP FOR EASTERN NORTH CAROLINA NATIONAL WEATHER SERVICE NEWPORT/MOREHEAD CITY NC 800 PM EST WED JAN 28 2015 NOTE: "FAIR" INDICATES FEW OR NO CLOUDS BELOW 12,000 FEET WITH NO SIGNIFICANT WEATHER AND/OR OBSTRUCTIONS TO VISIBILITY NCZ015>017-031-032-045>047-102-103-290200- NORTH COAST CITY SKY/WX TMP DP RH WIND PRES REMARKS EDENTON CLEAR 32 15 49 CALM 30.29R ELIZABETH CITY CLEAR 27 14 58 NW6 30.28R KITTY HAWK CLEAR 36 13 39 NW6 30.25S MANTEO CLEAR 37 14 38 NW8G17 30.27R $$ NCZ045>047-081-094-103-104-290200- CENTRAL COAST CITY SKY/WX TMP DP RH WIND PRES REMARKS FRISCO CLEAR 38 17 42 NW8 30.27R SWANQUARTER N/A 34 N/A N/A NW7 30.24 $$ NCZ095-097-098-100-101-290200- SOUTHERN COAST CITY SKY/WX TMP DP RH WIND PRES REMARKS BEAUFORT CLEAR 35 20 54 N7 30.30R CEDAR ISLAND N/A 41 N/A N/A NW12G23 30.30 JACKSONVILLE CLEAR 34 16 47 NW6 30.31R PINEY ISLAND N/A N/A N/A N/A MISG 30.29R WILMINGTON CLEAR 34 19 54 N5 30.31R $$ NCZ011>013-027>030-043-044-078>080-089-090>093-098-290200- COASTAL PLAIN CITY SKY/WX TMP DP RH WIND PRES REMARKS AHOSKIE CLEAR 26 16 64 CALM 30.31R CLINTON CLEAR 30 22 71 CALM 30.33R ELIZABETHTOWN CLEAR 32 20 60 CALM 30.31S GOLDSBORO CLEAR 34 25 68 CALM 30.30R GREENVILLE CLEAR 32 21 64 CALM 30.31R HAVELOCK CLEAR 37 13 37 NW5 30.31R KENANSVILLE CLEAR 28 20 75 CALM 30.33R KINSTON CLEAR 28 18 64 CALM 30.32R NEW BERN CLEAR 32 18 56 CALM 30.31R RICHLANDS CLEAR 27 18 69 CALM 30.32R ROCKY MOUNT CLEAR 28 15 58 CALM 30.31R WASHINGTON CLEAR 30 17 58 CALM 30.30R WHITEVILLE CLEAR 33 19 56 CALM 30.31R $$ AMZ130-135-150-152-154-156-158-170-250-252-270-ANZ085-086-088-633-658-670-290200- MARINE OBSERVATIONS STATION/POSITION TIME TEMP WIND PRES WAVE SWELL AIR SEA DIR/SP/G HT/PER HT/PER (UTC) (F) (DEG/KT/KT) (MB) (FT/S) (FT/S) CHESAPEAKE LIGHT 0100 36 340/ 25/ 27 1025.1 64 E VA BEACH 0100 39 50 340/ 21/ 27 1023.3 9/13 5/13 DUCK 0100 37 42 320/ 12/ 15 1024.0 2 E DUCK 0100 42 N/A 5/13 2/13 10 NE DUCK 0100 45 N/A 7/ 6 2/13 OREGON INLET 0100 35 42 330/ 8/ 11 1025.0 13E OREGON INLT 0100 45 N/A 8/12 3/12 HATTERAS CG 0100 40 45 340/ 18/ 20 1025.3 DIAMOND BUOY 0100 41 330/ 17/ 21 1024.5 6/13 5/13 17 S OCRACOKE NOT AVBL CAPE LOOKOUT 0100 40 340/ 11/ 13 1025.5 BEAUFORT LAB 0100 38 46 320/ 4/ 6 1024.9 27 SE WRIGHTSVLE NOT AVBL 5 SE WRIGHTSVLE 0100 44 53 360/ 14/ 19 1026.2 225 S CAPE HAT 0050 57 72 340/ 21/ 27 1021.3 11/ 8 5/11 41 SE CHARLESTON 0100 49 66 360/ 12/ 17 1025.9 4/13 3/13 $$

USA.gov is the U.S. government's official web portal to all federal, state and local government web resources and services.